Tracking 25193 objects as of 17-Jan-2022
HD Live streaming from Space Station
objects crossing your sky now

IRIDIUM 82

Track IRIDIUM 82 now!
10-day predictions
IRIDIUM 82 is classified as:


NORAD ID: 25467
Int'l Code: 1998-051A
Perigee: 476.1 km
Apogee: 719.9 km
Inclination: 86.4 °
Period: 96.5 minutes
Semi major axis: 6968 km
RCS: 4.1187 m2 (large)
Launch date: September 8, 1998
Source: United States (US)
Launch site: AIR FORCE WESTERN TEST RANGE (AFWTR)
aabbcc
Your satellite tracking list
Your tracking list is empty




NASA's NSSDC Master Catalog

Two Line Element Set (TLE):
1 25467U 98051A   22017.38137655  .00002323  00000-0  16601-3 0  9994
2 25467  86.4010 334.8929 0174959 169.4387 191.0596 14.92272594236373
Source of the keplerian elements: AFSPC